Regional Weather Roundup
Issued by NWS Cleveland, OH

Home | Current Version | Previous Version | Text Only | Print | Product List | Glossary Off
Versions: 1 2 3 4 5 6 7 8 9 10 11 12 13 14 15 16 17 18 19 20 21 22 23 24 25 26 27 28 29 30 31 32 33 34 35 36 37 38 39 40 41 42 43 44 45 46 47 48 49 50

000
ASUS41 KCLE 291002
RWRCLE
OHIO REGIONAL WEATHER ROUNDUP
NATIONAL WEATHER SERVICE CLEVELAND, OH
600 AM EDT THU SEP 29 2016

NOTE: "FAIR" INDICATES FEW OR NO CLOUDS BELOW 12,000 FEET WITH NO
SIGNIFICANT WEATHER AND/OR OBSTRUCTIONS TO VISIBILITY.

OHZ001>008-015>018-024>027-034-035-043-044-291100-
   NORTHWEST OHIO

CITY           SKY/WX    TMP DP  RH WIND       PRES   REMARKS
DEFIANCE       CLOUDY    57  54  89 N7        30.01R FOG
FINDLAY        CLOUDY    57  53  86 NE6       29.99R
TOLEDO EXPRESS MOCLDY    57  57 100 CALM      30.00S
TOLEDO EXEC    CLOUDY    59  58  96 CALM      30.02R
LIMA           CLOUDY    55  55 100 E3        30.00R
$$

OHZ009>014-019>023-028>033-038-089-291100-
   NORTHEAST OHIO

CITY           SKY/WX    TMP DP  RH WIND       PRES   REMARKS
CLE-HOPKINS    CLOUDY    58  55  90 SW7       30.04R
CLE-LAKEFRONT  CLOUDY    61  58  90 E3        30.02R
CUY CO. ARPT   NOT AVBL
LORAIN-ELYRIA  CLOUDY    54  52  93 S5        30.04R
ASHTABULA      CLOUDY    64  58  80 E15G22    30.07R
AKRON-CANTON   CLOUDY    58  55  90 E8        30.01R
WOOSTER        PTCLDY    52  51  97 CALM      30.03R
MANSFIELD      PTCLDY    54  53  97 SE6       30.01R
YOUNGSTOWN     LGT RAIN  62  58  86 E13       30.05R
$$

OHZ042-051>053-060>062-070>072-077>081-291100-
  SOUTHWEST OHIO

CITY           SKY/WX    TMP DP  RH WIND       PRES   REMARKS
CINC-COVINGTON CLOUDY    52  52 100 S3        29.98F FOG
CINC-LUNKEN    CLOUDY    53  53 100 CALM      29.99S
HAMILTON       CLOUDY    51  50  96 CALM      29.99S FOG
DAYTON         FOG       53  53 100 CALM      29.99R VSB 1/4
WRIGHT-PAT AFB NOT AVBL
DAYTON GENERAL CLOUDY    53  51  93 N3        29.98R
WILMINGTON     CLOUDY    51  51 100 S3        29.98S FOG
$$

OHZ036-037-039>041-045>050-054>059-063>069-073>076-082>088-291100-
  CENTRAL AND SOUTHEAST OHIO

CITY           SKY/WX    TMP DP  RH WIND       PRES   REMARKS
COLUMBUS       CLOUDY    57  57 100 E6        29.99R
OSU AIRPORT    CLOUDY    56  55  97 CALM      29.99R
BOLTON FIELD   NOT AVBL
RICKENBACK AFB MOCLDY    53  53 100 CALM      29.99R FOG
NEWARK         CLOUDY    57  55  93 SE6       30.01R
MARION         CLOUDY    56  53  90 E7        30.01R
LANCASTER      CLOUDY    58  56  93 E5        30.00R
ZANESVILLE     CLOUDY    55  54  96 CALM      30.01R
NEW PHILLY     CLOUDY    55  55 100 NW3       30.03R
$$




USA.gov is the U.S. government's official web portal to all federal, state and local government web resources and services.